Погода Нижний Тагил

Погода Нижний Тагил : погода сейчас, прогноз погоды и архив. Всё, что Вы хотите узнать о погоде Нижний Тагил!

Хотите узнать прогноз погоды Нижний Тагил? Тогда Вам сюда: Погода Нижний Тагил

Поиск расширенной информации на нашем сайте:

Другие новости

Новости СМИ2

Главная страница сайта

Новости сайта

02.10.2013

Напоминаем, что на нашем новом сайте вы можете получить высокодетализированные прогнозы погоды по пунктам России, СНГ и мира (включающие важные для авиации метеовеличины, такие как направление и скорость ветра, видимость, явления погоды, количество и форма облачности, нижняя и верхняя граница облачности), а также ознакомиться с разнообразными материалами по авиационной метеорологии и подборкой полезных ссылок на эту тему.

Сайт Метеоцентр.Азия посвящён разработке технологий оптимизации авиаметеорологического обслуживания, включая проектирование и перспективное создание нескольких автоматизированных авиаметеорологических систем:
- система выпуска высокодетальных прогностических карт явлений погоды для нижнего воздушного пространства по России и ближнему зарубежью;
- система верификации прогнозов TAF (выпускаемых синоптиками официальных АМСГ РФ и ближнего зарубежья) и AUTOTAF (выпускаемых сайтом Метеоцентр.Азия) - выявление ошибок, онлайн-сопоставление с фактической погодой METAR, автоматическое внесение коррективов в прогнозы при резком отклонении фактической погоды от прогноза, подсчёт оправдываемости прогнозов по элементам и в целом;
- система обработки, анализа и отображения авиаметеорологической информации для применения провайдерами метеорологической информации.

Рекомендуем: Сравнить цены на лазерная гравировка.

Погода Нижний Тагил - сегодня

Время (UTC), дата Ветер
(°,м/с) 
Видим.   Явления Облачность Т
(°С)
Тd
(°С)
f(%) Тe
(°С)
Pmin
(гПа)
dP
(гПа)
Po
(мм)
O2
(г/м3)
Тmin Tmax R s Состояние
почвы
09 27.08.16 310 (СЗ) 4000 м  слаб. ливневой дождь  10/10 600 м кучево-дожд. 
[Cb cap]
+13.7 +10.4 80 +16  1011.5  0.4  736  280           
12 27.08.16 330 (СЗ) 20000 м  {ливн. осадки}  8/8 300 м кучево-дожд. 
[Cb cap]
+15.7 +9.2 65 +17  1011.2  -0.1  736  279           
18 27.08.16 тихо ()   4000 м  дымка{ливн. осадки}  ясно 
+8.4 +7.4 93 +8  1013.5  0.9  737  287           
21 27.08.16 120 (ЮВ) 4000 м  дымка  ясно 
+6.9 +6 94 +8  1013.5  -0.2  737  288           
00 28.08.16 220 (ЮЗ) 4000 м  дымка  9/9 600 м кучево-дожд. 
[Cb cap]
+8.8 +8 95 +10  1012.7  -0.6  736  286           
03 28.08.16 210 (ЮЗ) 20000 м    3/0 верхняя 
[Ci fib]
+10.9 +10.1 95 +14  1010.7  -1.7  735  283  +6.5        влажная 
06 28.08.16 250 (З) 4{11}  20000 м    6/4 600 м кучево-дожд., средняя 
[Cb cap|Ac und]
+17.1 +9.6 61 +18  1007.9  -2  733  276           
12 28.08.16 230 (ЮЗ) 6-13{13}  20000 м    9/9 600 м кучево-дожд. 
[Cb cap]
+21.1 +8 43 +21  1001  -3.9  729  271           
15 28.08.16 280 (З) 6-11{14}  4000 м  ливневой дождь  10/10 600 м кучево-дожд. 
[Cb cap]
+15.5 +11.8 79 +19  1000.9  -0.6  728  275    +21.7     
18 28.08.16 230 (ЮЗ) 2{11}  20000 м  {ливн. осадки}  10/10 600 м кучево-дожд. 
[Cb cap]
+13.9 +12.4 91 +19  999  -2  727  276           
21 28.08.16 250 (З) 20000 м    3/3 600 м кучево-дожд. 
[Cb cap]
+12.6 +10.9 89 +16  998.2  -0.9  726  277           
00 29.08.16 260 (З) 20000 м    5/5 600 м кучево-дожд. 
[Cb cap]
+11.8 +9.3 85 +12  997.7  -0.6  725  278           
03 29.08.16 290 (З) 7-15{15}  20000 м    9/9 600 м кучево-дожд. 
[Cb cap]
+11.3 +7.5 77 +10  998.8  726  280  +11.2      влажная 
06 29.08.16 310 (СЗ) 8-15{17}  20000 м    8/8 600 м кучево-дожд. 
[Cb cap]
+10.2 +3.5 63 +8  1003.2  4.1  729  283  +10.2         
12 29.08.16 320 (СЗ) 6-11{15}  20000 м    8/8 600 м кучево-дожд. 
[Cb cap]
+11.1 -0.4 45 +10  1009.5  3.2  734  284           
18 29.08.16 300 (СЗ) 4{13}  20000 м    5/5 600 м 
[Sc diur, vesp]
+7.5 +2.4 70 +6  1015.4  2.3  738  289           
21 29.08.16 280 (З) 20000 м    4/4 600 м 
[Sc diur, vesp]
+6.1 +2.8 79 +5  1017.2  1.5  739  291           
00 30.08.16 280 (З) 20000 м    3/0 средняя 
[Ac trans]
+5.5 +3.3 86 +4  1018.8  1.5  740  292           
06 30.08.16 310 (СЗ) 20000 м    3/0 средняя 
[Ac trans]
+12.2 +2.9 53 +12  1020  0.7  742  286           
09 30.08.16 280 (З) 4{10}  20000 м    5/3 600 м кучево-дожд., средняя, верхняя 
[Cb cap|Ac trans|Ci fib]
+14.9 +2 42 +15  1019.3  -0.4  741  283           
12 30.08.16 280 (З) 20000 м    5/4 600 м кучево-дожд., верхняя 
[Cb cap|Ci fib]
+15.4 +1.9 40 +16  1018.4  -0.9  741  282           
18 30.08.16 250 (З) 2{10}  10 км  слаб. дождь  10/10 600 м 
[Sc]
+9.5 +4.9 73 +10  1018.1  -0.5  740  287           
21 30.08.16 120 (ЮВ) 20000 м  {дождь}  10/10 600 м 
[Sc]
+7.7 +6.2 90 +7  1016.4  -1.9  739  288           
00 31.08.16 130 (ЮВ) 4000 м  слаб. ливневой дождь  10/10 600 м кучево-дожд. 
[Cb cap]
+7.9 +6.6 91 +8  1013.7  -2.5  737  287           
03 31.08.16 170 (Ю) 4000 м  слаб. ливневой дождь  10/10 600 м кучево-дожд. 
[Cb cap]
+8.8 +7.6 92 +9  1012  -1.5  736  286  +7.6      влажная 
Время (UTC), дата Ветер
(°,м/с) 
Видим.   Явления Облачность Т
(°С)
Тd
(°С)
f(%) Тe
(°С)
Pmin
(гПа)
dP
(гПа)
Po
(мм)
O2
(г/м3)
Тmin Tmax R s Состояние
почвы

Для получения пояснительной информации подведите курсор к названию столбца.

ПОГОДА Нижний Тагил - архив

Всё, что Вы хотите узнать о погоде Нижний Тагил - удобно и подробно!

Выберите нужную дату (начиная с 1 января 2015* года) и нажмите кнопку "Найти".
Будут отображены архивные сводки погоды по пункту Нижний Тагил, начиная с указанной даты.


Отображать данные в формате CSV (для использования в таблицах Excel)


Внимание! Наш архив погоды предназначен исключительно для личного некоммерческого использования в познавательных целях. Если Вам необходимы официальные справки о состоянии погоды (для производственных, юридических, коммерческих и т.п. целей), обращайтесь в органы Росгидромета.

*Примечание: данная дата относится к архиву по метеостанциям СССР (Россия, СНГ, Балтия).
Архив по метеостанциям Зарубежной Европы и Азии (кроме Китая) хранится 10 дней, по другим регионам земного шара (Китай, Африка, Америка, Австралия, Океания) - 1 день.

Нижний Тагил - район местоположения метеостанции


Название, широта, долгота, высота метеостанции:
Нижний Тагил 57.9°ш. 60.1°д. 260 м над ур. моря [Российская Федерация]

Дополнительная информация

В oтличие oт бoльшинства пoгoдных сайтoв мы публикуем пoдрoбную метеoинфoрмацию в детальнoм прoфессиoнальнoм фoрмате.

Характеристики температуры и влажнoсти вoздуха измеряются на высoте 2 м в тени вдали oт зданий и деревьев.
Скoрoсть ветра измеряется на высoте 10 м (на урoвне рoста челoвека скoрoсть ветра ниже в 1.5-2 раза). Если метеoстанция нахoдится в гoрoде или в лесу, тo скoрoсть ветра занижена на 2-4 м/с пo сравнению с oткрытым местoм. Скoрoсть ветра над акватoриями крупных рек и oзёр, а также на вершинах хoлмoв на 2-5 м/с выше, чем в oбычных услoвиях.
Атмoсфернoе давление в разных тoчках местнoсти мoжет значительнo oтличаться oт давления на метеoстанции, в зависимoсти oт услoвий рельефа (при пoдъёме на 10 м давление пoнижается примернo на 1 мм рт.ст.).